Hourly Data Report for October 14, 2016

All times are specified in Local Standard Time (LST). Add 1 hour to adjust for Daylight Saving Time where and when it is observed.

ST LEONARD CS
NEW BRUNSWICK

47°09'28.050" N
67°49'55.014" W
245.00 m
810I001
71019
WIY

Download Data

Hourly Data (October 2016)
Hourly Data Report for October 14, 2016
Temp Definition
°C
Dew Point Temp Definition
°C
Rel Hum Definition
%
Wind Dir Definition
10's deg

Wind Spd Definition
km/h
Visibility Definition
km
Stn Press Definition
kPa
Hmdx Definition


Wind Chill Definition


Weather Definition


TIME
00:00 5.9 4.8 93 31 28   98.48     LegendNANA
01:00 5.4 4.2 92 30 28   98.62     LegendNANA
02:00 5.0 3.4 90 31 23   98.71     LegendNANA
03:00 4.3 2.4 87 30 22   98.80     LegendNANA
04:00 3.6 0.9 82 32 27   98.90     LegendNANA
05:00 2.8 0.3 83 31 13   98.97     LegendNANA
06:00 1.5 -0.4 87 31 15   99.09     LegendNANA
07:00 0.8 -0.6 90 30 16   99.19     LegendNANA
08:00 1.7 -1.2 81 30 14   99.30     LegendNANA
09:00 3.1 -1.7 71 32 23   99.37     LegendNANA
10:00 4.2 -3.1 59 32 30   99.43     LegendNANA
11:00 4.8 -3.6 55 33 31   99.46     LegendNANA
12:00 6.4 -2.4 53 32 26   99.50     LegendNANA
13:00 6.5 -3.9 47 32 24   99.47     LegendNANA
14:00 7.6 -4.2 43 31 25   99.48     LegendNANA
15:00 6.9 -5.8 40 31 25   99.51     LegendNANA
16:00 7.1 -4.4 44 30 18   99.54     LegendNANA
17:00 6.2 -4.7 45 31 15   99.63     LegendNANA
18:00 3.7 -3.9 58 31 13   99.70     LegendNANA
19:00 3.0 -3.9 61 32 11   99.73     LegendNANA
20:00 1.3 -3.7 69 36 5   99.75     LegendNANA
21:00 -0.2 -3.7 77 8 3   99.79   -1 LegendNANA
22:00 -0.1 -3.3 79 36 4   99.78   -1 LegendNANA
23:00 0.1 -2.9 80 28 6   99.79     LegendNANA

Notes on Data Quality.

Legend

  • E = Estimated
  • M = Missing
  • NA = Not Available
  • ‡ = Partner data that is not subject to review by the National Climate Archives
Date modified: